This demonstration page uses our WeatherBlox Daily Observations layout. Learn more.

Left ArrowRight Arrow

34.02893, -84.19858

Hourly Observations for May 22, 2015

Temp ( °F °C ) Dew Point ( °F °C ) Humidity (%) Winds ( mph kmh ) Pressure ( in mb ) Visibility ( mi km ) Precip ( " mm )
12:53 am 00:53 Clear 56 13.3 46 7.8 70 70 NW 13 20 30.07 1018 8 13 0.00 0.00
1:53 am 01:53 Clear 55 12.8 47 8.3 74 74 WNW 7 11 30.07 1018 8 13 0.00 0.00
2:53 am 02:53 Clear 54 12.2 47 8.3 77 77 NW 8 13 30.06 1018 8 13 0.00 0.00
3:53 am 03:53 Clear 53 11.7 47 8.3 80 80 NW 9 15 30.06 1018 8 13 0.00 0.00
4:53 am 04:53 Clear 52 11.1 47 8.3 83 83 NW 7 11 30.07 1018 8 13 0.00 0.00
5:53 am 05:53 Clear 51 10.6 46 7.8 83 83 NNW 5 7 30.08 1019 8 13 0.00 0.00
6:53 am 06:53 Sunny 51 10.6 46 7.8 83 83 NNW 8 13 30.12 1020 7 11 0.00 0.00
7:53 am 07:53 Sunny 54 12.2 47 8.3 77 77 NNW 6 9 30.15 1021 8 13 0.00 0.00
8:53 am 08:53 Sunny 58 14.4 47 8.3 67 67 NNE 5 7 30.18 1022 9 14 0.00 0.00
9:53 am 09:53 Sunny 63 17.2 47 8.3 56 56 N 5 7 30.20 1023 9 14 0.00 0.00
10:53 am 10:53 Sunny 66 18.9 48 8.9 52 52 VRB 6 9 30.21 1023 10 16 0.00 0.00
11:53 am 11:53 Sunny 69 20.6 48 8.9 47 47 VRB 6 9 30.21 1023 10 16 0.00 0.00
12:53 pm 12:53 Sunny 71 21.7 49 9.4 46 46 NNW 6 9 30.20 1023 10 16 0.00 0.00
1:53 pm 13:53 Sunny 73 22.8 49 9.4 43 43 N 5 7 30.19 1022 10 16 0.00 0.00
2:53 pm 14:53 Sunny 74 23.3 48 8.9 40 40 Calm 30.18 1022 10 16 0.00 0.00
3:53 pm 15:53 Sunny 76 24.4 50 10 40 40 SSW 5 7 30.17 1022 9 14 0.00 0.00
4:53 pm 16:53 Sunny 78 25.6 50 10 37 37 VRB 3 6 30.17 1022 9 14 0.00 0.00
5:53 pm 17:53 Sunny 78 25.6 49 9.4 36 36 NNW 3 6 30.17 1022 10 16 0.00 0.00
6:53 pm 18:53 Sunny 77 25 47 8.3 35 35 SE 3 6 30.17 1022 10 16 0.00 0.00
7:53 pm 19:53 Sunny 75 23.9 50 10 41 41 Calm 30.18 1022 10 16 0.00 0.00
8:53 pm 20:53 Clear 68 20 52 11.1 57 57 Calm 30.20 1023 10 16 0.00 0.00
9:53 pm 21:53 Clear 66 18.9 54 12.2 65 65 NNW 6 9 30.21 1023 10 16 0.00 0.00
10:53 pm 22:53 Clear 67 19.4 52 11.1 59 59 NNW 5 7 30.24 1024 10 16 0.00 0.00
11:53 pm 23:53 Clear 60 15.6 54 12.2 80 80 Calm 30.24 1024 10 16 0.00 0.00

Powered by AerisWeather